STARLINK-31229, 58986

Orbit data source: Space-Track

STARLINK-31229, 58986 is a payload satellite owned by SpaceX/Seattle (US) in LEO that was launched on Thu, 15 Feb 2024 UTC via an FALCON 9 launch vehicle from the Air Force Western Test Range (AFWTR). Payload-class satellites include a variety of spacecraft equipped with specific instruments for various scientific and technological missions. These include communications satellites like Starlink; space stations such as the ISS; scientific satellites like the Hubble; Earth observation satellites from companies like Planet Labs, Umbra, and HawkEye 360; GPS; miniature CubeSats for education and research; and military/defense satellites.

Loading next visibility...
Identifier
58986, 2024-031X
Orbit
LEO
Country
Flag of USUS
Related business
Manufacturer
SpaceX/Seattle
Mission
Operational Commercial Communications
Bus & Motor
STARLINK V2M, Unknown motor
Mass
730 kg wet, ~700 kg dry
Launch date (UTC)
2024-02-15 (2 years ago)
Launch vehicle
FALCON 9
Launch site
Air Force Western Test Range (AFWTR)
Object type
Payload
Rocket body
Debris
Shape & HBR
Box + 2 Pan, 17.7 m
Radar Cross Section
33.884 m², Large (>1 m²)

Expand to show TLE details & history
Last TLE update: 2 days ago

TLE from 2 days ago
0 STARLINK-31229
1 58986U 24031X   26171.39998856  .00000628  00000-0  33313-4 0  9993
2 58986  53.1599 179.9585 0001335  93.6564 266.4590 15.30210400132238
Epoch: 2026-06-20T09:35Z
TLE epoch observation values (Epoch: 2026-06-20T09:35:59.011Z)
Latitude
0.00002°
Longitude
127.34747°
Altitude
476.14 km
Speed
7.629 km/s
True Right ascension
11h 59m 50s
True Declination
0° 00' 00"
Sunlit
Object was in daylight at epoch
Visualization orbit readout
Latitude
Unknown
Longitude
Unknown
Altitude
Unknown
Speed
Unknown
Apparent Right ascension
Unknown
Apparent Declination
Unknown
Sunlit
N/A
Visualization observer readout
Local Sidereal Time
00:31:42
Azimuth
Unknown
Elevation
Unknown
Doppler factor
Unknown
Orbital elements
Apogee altitude
476.355 km
Perigee altitude
474.526 km
Semi-major axis
6,853.577 km
Eccentricity
0.00013
Inclination
53.1599°
RAAN
179.9585°
Arg. of periapsis
93.6564°
True anomaly
266.44373°
Mean anomaly
266.459°
Eccentric anomaly
266.45137°
Mean motion
3.82531 °/min
Orbital period
94.11 mins
BSTAR
0.000033313
Loading maneuver chart data...
Computing Atmospheric mass density...
Loading historical data...
Loading historical data...
Loading historical data...
Loading historical data...
Loading historical data...
Loading historical data...
Loading historical data...

Documentation

Showing up to 5 results
|